EW3937 Weather Reports


time (UTC)temp
C
wind
direction
speed
KPH
gust
KPH
rain 1hr
cm
rain 24hr
cm
rain mn
cm
humidity
%
barometer
mb
20260507070503 17 223 14.5 25.7 0.00 0.00 0.00 46 1013.5
20260507070008 17 220 17.7 29.0 0.00 0.00 0.00 46 1013.4
20260507065503 17 218 16.1 30.6 0.00 0.00 0.00 45 1013.4
20260507065003 17 218 14.5 32.2 0.00 0.00 0.00 45 1013.4
20260507064503 17 222 14.5 32.2 0.00 0.00 0.00 45 1013.3
20260507064003 17 226 14.5 29.0 0.00 0.00 0.00 46 1013.3
20260507063503 17 223 16.1 27.4 0.00 0.00 0.00 46 1013.2
20260507063003 17 220 17.7 29.0 0.00 0.00 0.00 45 1013.1
20260507062503 17 221 19.3 30.6 0.00 0.00 0.00 45 1013.0
20260507062003 17 221 19.3 32.2 0.00 0.00 0.00 46 1012.8
20260507061503 17 219 19.3 35.4 0.00 0.00 0.00 47 1012.8
20260507061003 17 221 19.3 37.0 0.00 0.00 0.00 47 1012.8
20260507060503 17 222 19.3 37.0 0.00 0.00 0.00 48 1012.7
20260507060003 18 223 20.9 41.8 0.00 0.00 0.00 48 1012.8
20260507055503 18 223 22.5 41.8 0.00 0.00 0.00 48 1012.8
20260507055003 18 222 22.5 35.4 0.00 0.00 0.00 48 1012.8
20260507054503 18 222 20.9 38.6 0.00 0.00 0.00 48 1012.8
20260507054003 18 223 19.3 38.6 0.00 0.00 0.00 46 1012.8
20260507053503 18 224 17.7 37.0 0.00 0.00 0.00 45 1012.8
20260507053003 18 218 16.1 37.0 0.00 0.00 0.00 46 1012.7
20260507052503 18 218 14.5 37.0 0.00 0.00 0.00 46 1012.8
20260507052216 18 218 16.1 37.0 0.00 0.00 0.00 46 1012.7
20260507051503 18 223 17.7 32.2 0.00 0.00 0.00 47 1012.7
20260507051003 18 224 16.1 32.2 0.00 0.00 0.00 46 1012.6
20260507050503 18 223 16.1 37.0 0.00 0.00 0.00 48 1012.7
20260507050003 18 220 16.1 37.0 0.00 0.00 0.00 50 1012.8
20260507045503 18 218 17.7 27.4 0.00 0.00 0.00 50 1012.8
20260507045003 18 222 16.1 30.6 0.00 0.00 0.00 50 1012.8
20260507044503 18 221 14.5 30.6 0.00 0.00 0.00 50 1012.8
20260507044003 18 218 12.9 25.7 0.00 0.00 0.00 50 1012.8
20260507043717 18 219 12.9 25.7 0.00 0.00 0.00 50 1012.7
20260507043218 19 220 12.9 27.4 0.00 0.00 0.00 49 1012.8
20260507042503 19 222 14.5 27.4 0.00 0.00 0.00 47 1012.8
20260507042003 19 224 16.1 29.0 0.00 0.00 0.00 48 1012.9
20260507041503 19 222 16.1 29.0 0.00 0.00 0.00 47 1012.8
20260507041003 19 221 14.5 32.2 0.00 0.00 0.00 47 1012.8
20260507040503 19 219 14.5 32.2 0.00 0.00 0.00 47 1012.9
20260507040004 20 218 14.5 29.0 0.00 0.00 0.00 48 1012.8
20260507035504 20 216 14.5 29.0 0.00 0.00 0.00 48 1012.8
20260507035003 20 216 16.1 24.1 0.00 0.00 0.00 49 1012.7
20260507034717 20 219 17.7 29.0 0.00 0.00 0.00 49 1012.7
20260507034003 20 218 17.7 33.8 0.00 0.00 0.00 47 1012.7
20260507033716 20 217 16.1 33.8 0.00 0.00 0.00 47 1012.7
20260507033003 20 219 14.5 33.8 0.00 0.00 0.00 47 1012.7
20260507032503 20 221 14.5 27.4 0.00 0.00 0.00 46 1012.7
20260507032004 20 222 14.5 29.0 0.00 0.00 0.00 45 1012.7
20260507031503 20 222 11.3 29.0 0.00 0.00 0.00 44 1012.7
20260507031003 20 221 9.7 24.1 0.00 0.00 0.00 44 1012.6
20260507030503 20 219 9.7 19.3 0.00 0.00 0.00 44 1012.7
20260507030003 20 217 9.7 16.1 0.00 0.00 0.00 45 1012.7
20260507025503 20 218 11.3 17.7 0.00 0.00 0.00 45 1012.7
20260507025003 20 222 12.9 20.9 0.00 0.00 0.00 45 1012.6
20260507024503 20 224 12.9 20.9 0.00 0.00 0.00 44 1012.6
20260507024003 21 220 12.9 20.9 0.00 0.00 0.00 44 1012.6
20260507023503 21 219 12.9 22.5 0.00 0.00 0.00 43 1012.6
20260507023003 21 221 12.9 22.5 0.00 0.00 0.00 44 1012.6
20260507022503 21 218 11.3 20.9 0.00 0.00 0.00 44 1012.6
20260507022217 21 218 11.3 20.9 0.00 0.00 0.00 43 1012.6
20260507021503 21 220 11.3 20.9 0.00 0.00 0.00 43 1012.6
20260507021217 21 221 11.3 20.9 0.00 0.00 0.00 43 1012.5
20260507020503 21 220 9.7 22.5 0.00 0.00 0.00 42 1012.5
20260507020217 21 218 8.0 22.5 0.00 0.00 0.00 43 1012.4
20260507015503 21 222 6.4 14.5 0.00 0.00 0.00 44 1012.6
20260507015003 21 227 6.4 14.5 0.00 0.00 0.00 44 1012.6
20260507014503 21 230 6.4 9.7 0.00 0.00 0.00 44 1012.6
20260507014003 21 226 6.4 14.5 0.00 0.00 0.00 43 1012.6
20260507013503 21 228 4.8 14.5 0.00 0.00 0.00 42 1012.6
20260507013003 21 227 4.8 11.3 0.00 0.00 0.00 42 1012.7
20260507012718 21 223 6.4 9.7 0.00 0.00 0.00 42 1012.7
20260507012003 21 217 8.0 17.7 0.00 0.00 0.00 41 1012.7
20260507011503 21 221 9.7 17.7 0.00 0.00 0.00 40 1012.7
20260507011003 21 221 8.0 17.7 0.00 0.00 0.00 40 1012.8
20260507010503 21 217 8.0 16.1 0.00 0.00 0.00 40 1012.7
20260507010003 21 220 8.0 14.5 0.00 0.00 0.00 42 1012.8
20260507005503 22 223 11.3 16.1 0.00 0.00 0.00 44 1012.8
20260507005003 22 220 14.5 27.4 0.00 0.00 0.00 43 1012.8
20260507004503 22 221 14.5 27.4 0.00 0.00 0.00 42 1012.8
20260507004003 22 222 12.9 27.4 0.00 0.00 0.00 43 1013.0
20260507003503 22 223 12.9 24.1 0.00 0.00 0.00 42 1013.0
20260507003003 22 225 11.3 25.7 0.00 0.00 0.00 42 1012.9
20260507002717 22 222 12.9 25.7 0.00 0.00 0.00 42 1013.0
20260507002003 22 215 14.5 25.7 0.00 0.00 0.00 41 1012.9
20260507001503 22 217 14.5 25.7 0.00 0.00 0.00 41 1012.9
20260507001003 23 219 12.9 29.0 0.00 0.00 0.00 41 1012.8
20260507000503 22 219 11.3 29.0 0.00 0.00 0.00 42 1012.9
20260507000219 22 221 12.9 24.1 0.00 0.00 0.00 42 1012.8
20260506235503 22 224 12.9 27.4 0.00 0.00 0.00 44 1012.9
20260506235003 22 221 11.3 29.0 0.00 0.00 0.00 42 1012.9
20260506234503 22 221 9.7 29.0 0.00 0.00 0.00 42 1012.9
20260506234218 22 223 9.7 20.9 0.00 0.00 0.00 42 1013.0
20260506233503 22 228 9.7 22.5 0.00 0.00 0.00 42 1013.0
20260506233218 22 225 9.7 22.5 0.00 0.00 0.00 43 1013.1
20260506232503 22 225 9.7 20.9 0.00 0.00 0.00 42 1013.0
20260506232218 22 229 9.7 20.9 0.00 0.00 0.00 43 1013.1
20260506231503 22 228 9.7 20.9 0.00 0.00 0.00 41 1013.2
20260506231218 22 229 9.7 22.5 0.00 0.00 0.00 40 1013.1
20260506230503 23 230 11.3 22.5 0.00 0.00 0.00 40 1013.2
20260506230003 23 228 12.9 25.7 0.00 0.00 0.00 41 1013.2
20260506225503 23 228 12.9 25.7 0.00 0.00 0.00 43 1013.2
20260506225003 23 226 14.5 24.1 0.00 0.00 0.00 42 1013.2
20260506224503 23 222 12.9 27.4 0.00 0.00 0.00 42 1013.3
20260506224003 23 225 12.9 27.4 0.00 0.00 0.00 42 1013.3
20260506223503 23 225 12.9 24.1 0.00 0.00 0.00 43 1013.4
20260506223003 23 222 11.3 25.7 0.00 0.00 0.00 41 1013.4
20260506222503 23 225 11.3 25.7 0.00 0.00 0.00 41 1013.3
20260506222004 23 228 11.3 24.1 0.00 0.00 0.00 43 1013.4
20260506221504 23 224 12.9 20.9 0.00 0.00 0.00 45 1013.4
20260506221003 22 224 14.5 24.1 0.00 0.00 0.00 45 1013.5
20260506220503 22 225 14.5 35.4 0.00 0.00 0.00 45 1013.5
20260506220003 22 223 12.9 35.4 0.00 0.00 0.00 44 1013.6
20260506215503 23 225 14.5 25.7 0.00 0.00 0.00 45 1013.7
20260506215003 22 227 16.1 29.0 0.00 0.00 0.00 45 1013.8
20260506214503 22 226 14.5 29.0 0.00 0.00 0.00 42 1013.8
20260506214003 22 225 12.9 41.8 0.00 0.00 0.00 40 1014.0
20260506213718 23 226 12.9 41.8 0.00 0.00 0.00 42 1014.0
20260506213217 23 221 14.5 27.4 0.00 0.00 0.00 45 1013.9
20260506212503 23 223 14.5 35.4 0.00 0.00 0.00 41 1013.9
20260506212003 23 228 14.5 35.4 0.00 0.00 0.00 42 1013.8
20260506211503 23 232 14.5 29.0 0.00 0.00 0.00 43 1013.8
20260506211003 23 231 14.5 29.0 0.00 0.00 0.00 43 1013.9
20260506210503 23 228 12.9 29.0 0.00 0.00 0.00 42 1013.9
20260506210003 23 232 9.7 29.0 0.00 0.00 0.00 44 1013.9
20260506205503 23 236 9.7 22.5 0.00 0.00 0.00 43 1014.0
20260506205217 23 234 9.7 22.5 0.00 0.00 0.00 44 1014.0
20260506204503 23 239 9.7 29.0 0.00 0.00 0.00 43 1014.0
20260506204003 23 237 8.0 29.0 0.00 0.00 0.00 44 1014.1
20260506203503 23 237 8.0 25.7 0.00 0.00 0.00 42 1014.1
20260506203003 23 233 8.0 25.7 0.00 0.00 0.00 42 1014.1
20260506202503 23 230 8.0 22.5 0.00 0.00 0.00 42 1014.2
20260506202003 23 235 9.7 22.5 0.00 0.00 0.00 43 1014.1
20260506201503 23 233 9.7 20.9 0.00 0.00 0.00 42 1014.1
20260506201003 23 229 8.0 24.1 0.00 0.00 0.00 43 1014.2
20260506200718 23 230 8.0 24.1 0.00 0.00 0.00 41 1014.2
20260506200003 23 239 11.3 22.5 0.00 0.00 0.00 42 1014.2
20260506195503 22 236 12.9 22.5 0.00 0.00 0.00 42 1014.2
20260506195003 23 228 12.9 27.4 0.00 0.00 0.00 41 1014.2
20260506194503 22 229 11.3 27.4 0.00 0.00 0.00 41 1014.1
20260506194217 22 227 9.7 25.7 0.00 0.00 0.00 40 1014.0
20260506193504 22 232 8.0 20.9 0.00 0.00 0.00 41 1014.1
20260506193003 22 237 8.0 17.7 0.00 0.00 0.00 41 1014.2
20260506192503 22 226 8.0 20.9 0.00 0.00 0.00 41 1014.3
20260506192216 23 221 6.4 20.9 0.00 0.00 0.00 42 1014.3
20260506191503 22 238 6.4 17.7 0.00 0.00 0.00 45 1014.5
20260506191003 22 237 8.0 14.5 0.00 0.00 0.00 44 1014.5
20260506190503 22 224 9.7 16.1 0.00 0.00 0.00 44 1014.5
20260506190216 22 224 9.7 19.3 0.00 0.00 0.00 44 1014.6
20260506185717 21 230 11.3 25.7 0.00 0.00 0.00 44 1014.6
20260506185003 21 223 8.0 25.7 0.00 0.00 0.00 44 1014.6
20260506184503 21 224 6.4 20.9 0.00 0.00 0.00 44 1014.6
20260506184003 21 234 6.4 19.3 0.00 0.00 0.00 46 1014.7
20260506183503 21 232 6.4 19.3 0.00 0.00 0.00 45 1014.7
20260506183218 21 233 6.4 17.7 0.00 0.00 0.00 44 1014.8
20260506182503 21 231 6.4 17.7 0.00 0.00 0.00 46 1014.8
20260506182003 21 230 6.4 14.5 0.00 0.00 0.00 47 1014.9
20260506181717 21 223 4.8 14.5 0.00 0.00 0.00 46 1014.9
20260506181003 21 208 3.2 14.5 0.00 0.00 0.00 45 1014.9
20260506180503 22 221 3.2 8.0 0.00 0.00 0.00 45 1014.9
20260506180004 21 229 3.2 8.0 0.00 0.00 0.00 48 1015.0
20260506175503 21 229 3.2 8.0 0.00 0.00 0.00 45 1015.0
20260506175003 21 241 1.6 9.7 0.00 0.00 0.00 45 1015.0
20260506174503 21 250 1.6 9.7 0.00 0.00 0.00 45 1015.0
20260506174218 21 253 1.6 9.7 0.00 0.00 0.00 46 1015.1
20260506173503 21 247 1.6 9.7 0.00 0.00 0.00 45 1015.1
20260506173218 20 261 1.6 3.2 0.00 0.00 0.00 48 1015.2
20260506172717 20 357 1.6 4.8 0.00 0.00 0.00 48 1015.2
20260506172003 20 51 1.6 6.4 0.00 0.00 0.00 47 1015.2
20260506171503 19 53 1.6 6.4 0.00 0.00 0.00 47 1015.1
20260506171003 19 5 1.6 6.4 0.00 0.00 0.00 46 1015.1
20260506170503 19 360 1.6 6.4 0.00 0.00 0.00 48 1015.2
20260506170003 19 39 1.6 4.8 0.00 0.00 0.00 46 1015.2
20260506165503 19 76 1.6 6.4 0.00 0.00 0.00 47 1015.1
20260506165003 18 82 0.0 6.4 0.00 0.00 0.00 48 1015.0
20260506164503 18 65 0.0 4.8 0.00 0.00 0.00 48 1015.0
20260506164003 18 30 1.6 4.8 0.00 0.00 0.00 49 1015.0
20260506163717 18 32 1.6 4.8 0.00 0.00 0.00 48 1015.1
20260506163003 18 64 1.6 4.8 0.00 0.00 0.00 50 1014.9
20260506162503 18 61 1.6 4.8 0.00 0.00 0.00 48 1015.0
20260506162003 17 52 1.6 4.8 0.00 0.00 0.00 48 1015.0
20260506161716 17 24 1.6 6.4 0.00 0.00 0.00 50 1015.0
20260506161003 17 13 1.6 11.3 0.00 0.00 0.00 50 1015.2
20260506160503 17 33 1.6 11.3 0.00 0.00 0.00 50 1015.2
20260506160003 17 37 1.6 4.8 0.00 0.00 0.00 51 1015.2
20260506155504 16 43 1.6 6.4 0.00 0.00 0.00 52 1015.2
20260506155003 16 24 1.6 6.4 0.00 0.00 0.00 50 1015.2
20260506154503 16 39 1.6 8.0 0.00 0.00 0.00 53 1015.2
20260506154003 16 46 0.0 8.0 0.00 0.00 0.00 54 1015.2
20260506153718 16 8 0.0 4.8 0.00 0.00 0.00 55 1015.1
20260506153003 15 39 1.6 9.7 0.00 0.00 0.00 55 1015.1
20260506152503 15 50 1.6 9.7 0.00 0.00 0.00 58 1015.2
20260506152003 15 63 1.6 4.8 0.00 0.00 0.00 58 1015.2
20260506151503 15 57 1.6 6.4 0.00 0.00 0.00 60 1015.3
20260506151003 15 43 1.6 6.4 0.00 0.00 0.00 59 1015.3
20260506150504 15 37 1.6 6.4 0.00 0.00 0.00 59 1015.2
20260506150217 14 27 1.6 4.8 0.00 0.00 0.00 60 1015.2
20260506145503 14 47 1.6 6.4 0.00 0.00 0.00 59 1015.1
20260506145003 14 48 0.0 4.8 0.00 0.00 0.00 58 1015.2
20260506144503 13 0 6.4 6.4 0.00 0.00 0.00 59 1015.2
20260506144217 13 0 6.4 6.4 0.00 0.00 0.00 61 1015.2
20260506143503 13 0 3.2 3.2 0.00 0.00 0.00 62 1015.2
20260506143003 13 0 1.6 1.6 0.00 0.00 0.00 64 1015.2
20260506142718 12 0 3.2 3.2 0.00 0.00 0.00 65 1015.2
20260506142003 12 0 3.2 3.2 0.00 0.00 0.00 64 1015.3
20260506141503 12 0 1.6 1.6 0.00 0.00 0.00 64 1015.2
20260506141003 11 0 3.2 3.2 0.00 0.00 0.00 65 1015.2
20260506140503 11 105 6.4 6.4 0.00 0.00 0.00 67 1015.3
20260506140003 10 100 6.4 6.4 0.00 0.00 0.00 67 1015.3
20260506135503 10 0 1.6 1.6 0.00 0.00 0.00 68 1015.2
20260506135003 6 0 4.8 4.8 0.00 0.00 0.00 75 1015.2
20260506134503 6 0 4.8 4.8 0.00 0.00 0.00 75 1015.3
20260506134003 6 0 4.8 4.8 0.00 0.00 0.00 75 1015.1
20260506133503 6 0 4.8 4.8 0.00 0.00 0.00 75 1015.1
20260506133003 6 0 4.8 4.8 0.00 0.00 0.00 75 1015.0
20260506132503 6 0 4.8 4.8 0.00 0.00 0.00 75 1014.9
20260506132003 6 0 4.8 4.8 0.00 0.00 0.00 75 1014.9
20260506131503 6 0 4.8 4.8 0.00 0.00 0.00 75 1014.7
20260506131003 6 0 4.8 4.8 0.00 0.00 0.00 75 1014.7
20260506130503 6 0 4.8 4.8 0.00 0.00 0.00 75 1014.7
20260506130004 6 0 4.8 4.8 0.00 0.00 0.00 75 1014.8
20260506125503 6 0 4.8 4.8 0.00 0.00 0.00 75 1014.6
20260506125003 6 0 4.8 4.8 0.00 0.00 0.00 75 1014.6
20260506124503 6 0 4.8 4.8 0.00 0.00 0.00 75 1014.5
20260506124004 6 0 4.8 4.8 0.00 0.00 0.00 75 1014.5
20260506123717 6 0 4.8 4.8 0.00 0.00 0.00 76 1014.5
20260506123003 6 0 3.2 3.2 0.00 0.00 0.00 76 1014.5
20260506122503 6 0 1.6 1.6 0.00 0.00 0.00 77 1014.5
20260506122218 6 0 1.6 1.6 0.00 0.00 0.00 77 1014.5
20260506121503 6 0 1.6 1.6 0.00 0.00 0.00 77 1014.5
20260506121003 6 0 1.6 1.6 0.00 0.00 0.00 77 1014.5
20260506120503 6 0 1.6 1.6 0.00 0.00 0.00 78 1014.5
20260506120004 6 0 0.0 1.6 0.00 0.00 0.00 78 1014.5
20260506115503 6 0 0.0 1.6 0.00 0.00 0.00 78 1014.4
20260506115003 5 0 0.0 0.0 0.00 0.00 0.00 80 1014.4
20260506114503 5 149 1.6 3.2 0.00 0.00 0.00 81 1014.4
20260506114003 5 149 0.0 3.2 0.00 0.00 0.00 81 1014.3
20260506113503 6 0 3.2 3.2 0.00 0.00 0.00 79 1014.5
20260506113003 6 0 3.2 3.2 0.00 0.00 0.00 79 1014.4
20260506112503 6 0 0.0 0.0 0.00 0.00 0.00 79 1014.3
20260506112003 6 0 1.6 1.6 0.00 0.00 0.00 79 1014.4
20260506111503 6 0 1.6 1.6 0.00 0.00 0.00 79 1014.4
20260506111003 6 0 1.6 1.6 0.00 0.00 0.00 79 1014.5
20260506110503 6 0 3.2 3.2 0.00 0.00 0.00 79 1014.4
20260506110003 6 0 3.2 3.2 0.00 0.00 0.00 78 1014.4
20260506105503 6 0 1.6 1.6 0.00 0.00 0.00 78 1014.4
20260506105003 6 0 1.6 1.6 0.00 0.00 0.00 78 1014.4
20260506104503 5 0 3.2 3.2 0.00 0.00 0.00 80 1014.4
20260506104003 5 0 3.2 3.2 0.00 0.00 0.00 81 1014.3
20260506103503 5 0 3.2 3.2 0.00 0.00 0.00 81 1014.3
20260506103003 6 0 1.6 1.6 0.00 0.00 0.00 79 1014.3
20260506102503 6 0 1.6 1.6 0.00 0.00 0.00 77 1014.2
20260506102003 6 0 1.6 1.6 0.00 0.00 0.00 77 1014.1
20260506101503 6 0 1.6 1.6 0.00 0.00 0.00 77 1014.1
20260506101003 6 0 1.6 1.6 0.00 0.00 0.00 78 1014.1
20260506100503 6 0 1.6 1.6 0.00 0.00 0.00 79 1014.2
20260506100217 6 0 1.6 1.6 0.00 0.00 0.00 80 1014.2
20260506095503 6 0 0.0 0.0 0.00 0.00 0.00 80 1014.2
20260506095003 6 0 0.0 0.0 0.00 0.00 0.00 80 1014.2
20260506094503 6 0 0.0 0.0 0.00 0.00 0.00 80 1014.2
20260506094003 6 0 0.0 0.0 0.00 0.00 0.00 79 1014.2
20260506093503 6 0 0.0 0.0 0.00 0.00 0.00 79 1014.2
20260506093003 6 0 0.0 0.0 0.00 0.00 0.00 78 1014.1
20260506092503 6 0 1.6 1.6 0.00 0.00 0.00 78 1014.2
20260506092003 6 0 1.6 1.6 0.00 0.00 0.00 77 1014.2
20260506091503 6 0 1.6 1.6 0.00 0.00 0.00 77 1014.1
20260506091003 6 0 0.0 1.6 0.00 0.00 0.00 78 1014.1
20260506090503 6 0 1.6 1.6 0.00 0.00 0.00 80 1014.1
20260506090003 6 0 0.0 1.6 0.00 0.00 0.00 80 1014.0
20260506085503 6 0 1.6 1.6 0.00 0.00 0.00 81 1014.1
20260506085003 5 0 0.0 1.6 0.00 0.00 0.00 82 1014.1
20260506084503 5 0 0.0 0.0 0.00 0.00 0.00 81 1014.0
20260506084216 5 0 0.0 0.0 0.00 0.00 0.00 82 1014.0
20260506083503 5 0 0.0 1.6 0.00 0.00 0.00 81 1014.0
20260506083003 6 0 0.0 1.6 0.00 0.00 0.00 81 1014.0
20260506082503 6 164 1.6 1.6 0.00 0.00 0.00 81 1013.9
20260506082003 6 161 1.6 6.4 0.00 0.00 0.00 81 1013.8
20260506081503 6 178 1.6 6.4 0.00 0.00 0.00 81 1013.8
20260506081003 6 188 1.6 6.4 0.00 0.00 0.00 82 1013.7
20260506080503 5 181 0.0 6.4 0.00 0.00 0.00 83 1013.7
20260506073503 5 0 0.0 0.0 0.00 0.00 0.00 81 1013.7
20260506073003 5 0 0.0 0.0 0.00 0.00 0.00 81 1013.7
20260506072503 6 0 1.6 1.6 0.00 0.00 0.00 79 1013.6
20260506072003 6 0 1.6 1.6 0.00 0.00 0.00 78 1013.7
20260506071503 6 0 1.6 1.6 0.00 0.00 0.00 78 1013.5
20260506071003 6 0 1.6 1.6 0.00 0.00 0.00 78 1013.5